ANDOYA current weather conditions

sailwx.info

Wind from 040 at 29 knots

Air temperature 8.0° C
Visibility: greater than 5.4 NM
Dewpoint 5.0° C
Present weather: Showers in the vicinity.

Last reported at 2015-Jul-07 17:50 UTC.
Time now 2015-Jul-07 19:45 UTC

Location: N 69°18' E 016°09'.
View on Google Maps.

See reports from other nearby stations

  
Tides and Currents Weather Stations Pressure Air Temp Water Temp Dewpoint Dewpoint Depression Visibility Wind Speed Wind Dir Waves Ship Positions
date/time (UTC)wind fromknots sea level pressurealtimeterstation pressurevisibilityair tempwater tempwave heightnotes
2015-Jul-07 17:50 040 29 5.4 8.0 Showers in the vicinity.
2015-Jul-07 17:20 040 27 5.4 8.0 Showers in the vicinity.
2015-Jul-07 16:50 050 26 5.4 8.0 Light rain.
2015-Jul-07 14:20 040 27 5.4 8.0 Light rain showers.
2015-Jul-07 13:50 040 27 5.4 8.0
2015-Jul-07 13:20 050 27 5.4 9.0
2015-Jul-07 12:50 050 27 5.4 8.0
2015-Jul-07 12:20 050 27 5.4 9.0
2015-Jul-07 11:50 050 26 5.4 9.0
2015-Jul-07 11:20 050 25 5.4 9.0
2015-Jul-07 10:50 050 25 5.4 9.0
2015-Jul-07 10:20 050 25 5.410.0
2015-Jul-07 09:50 050 23 5.4 9.0
2015-Jul-07 09:20 050 22 5.4 9.0
2015-Jul-07 08:50 050 22 5.410.0
2015-Jul-07 08:20 050 22 5.410.0
2015-Jul-07 07:50 040 22 5.410.0
2015-Jul-07 07:20 050 22 5.410.0
2015-Jul-07 06:50 050 23 5.4 9.0
2015-Jul-07 06:20 050 23 5.4 9.0
2015-Jul-07 05:50 050 24 5.4 8.0
2015-Jul-07 05:20 040 25 5.4 8.0
2015-Jul-07 04:50 040 23 5.4 9.0
2015-Jul-07 04:20 040 23 5.4 8.0
2015-Jul-07 03:50 040 24 5.4 8.0
2015-Jul-07 03:20 040 23 5.4 9.0
2015-Jul-07 02:50 040 22 5.4 9.0
2015-Jul-07 01:50 040 23 5.4 8.0
2015-Jul-07 00:50 040 24 5.4 8.0
2015-Jul-06 23:50 030 23 5.4 9.0
2015-Jul-06 22:50 030 22 5.4 9.0
2015-Jul-06 21:50 030 22 5.4 8.0
2015-Jul-06 20:50 030 24 5.4 9.0
2015-Jul-06 19:50 030 20 5.4 9.0
2015-Jul-06 18:50 040 20 5.410.0
2015-Jul-06 17:50 030 22 5.410.0
2015-Jul-06 16:50 040 20 5.410.0
2015-Jul-06 16:20 040 20 5.410.0
2015-Jul-06 15:50 040 19 5.411.0
2015-Jul-06 15:20 040 19 5.411.0
2015-Jul-06 14:50 040 20 5.411.0
2015-Jul-06 14:20 040 19 5.411.0
2015-Jul-06 13:50 040 17 5.411.0
2015-Jul-06 13:20 040 16 11.0
2015-Jul-06 12:50 040 16 12.0
2015-Jul-06 12:20 040 14 11.0
2015-Jul-06 11:50 050 13 12.0
2015-Jul-06 11:20 050 13 12.0
2015-Jul-06 10:50 050 11 11.0
2015-Jul-06 10:20 040 12 11.0
2015-Jul-06 09:50 050 13 11.0
2015-Jul-06 09:20 050 13 11.0
2015-Jul-06 08:20 040 15 11.0
2015-Jul-06 07:50 050 15 11.0
2015-Jul-06 07:20 050 13 11.0
2015-Jul-06 06:50 050 12 11.0
2015-Jul-06 06:20 060 11 11.0
2015-Jul-06 05:50 060 8 11.0
2015-Jul-06 05:20 050 5 10.0
2015-Jul-06 04:50 070 5 10.0
2015-Jul-06 04:20 080 6 10.0
2015-Jul-06 03:50 060 4 5.4 9.0
2015-Jul-06 03:20 130 1 5.4 8.0
2015-Jul-06 02:50 060 4 5.4 8.0
2015-Jul-06 01:50 080 5 5.4 8.0
2015-Jul-06 00:50 080 7 5.4 9.0
2015-Jul-05 23:50 080 8 5.4 9.0
2015-Jul-05 22:50 070 7 5.4 9.0
2015-Jul-05 21:50 060 7 5.4 9.0
2015-Jul-05 20:50 050 8 5.4 9.0
2015-Jul-05 19:50 050 8 5.4 9.0